Weather History for RJOO - March, 2014

Change the Weather History Date:

Monday, March 10, 2014

  Actual Average Record
Temperature  
Mean Temperature 40 °F -  
Max Temperature 46 °F 59 °F 68 °F (2005)
Min Temperature 33 °F 41 °F 28 °F (2001)
Degree Days  
Heating Degree Days 26    
Moisture  
Dew Point 20 °F    
Average Humidity 45    
Maximum Humidity 75    
Minimum Humidity 27    
Precipitation  
Precipitation 0.00 in - - ()
Sea Level Pressure  
Sea Level Pressure 30.10 in    
Wind  
Wind Speed 12 mph ()    
Max Wind Speed 20 mph    
Max Gust Speed 37 mph    
Visibility 6.2 miles    
Events      
Averages and records for this station are not official NWS values.
T = Trace of Precipitation, MM = Missing Value Source: Averaged Metar Reports

Daily Weather History Graph

Daily Weather History Graph

Search for Another Location

Airport or City:

Trip Planner

Search our weather history database for the weather conditions in past years. The results will help you decide how hot, cold, wet, or windy it might be!

Date:

Astronomy

Mar. 10, 2014 Rise Set
Actual Time 6:16 AM JST 6:01 PM JST
Civil Twilight 5:51 AM JST 6:26 PM JST
Nautical Twilight 5:22 AM JST 6:55 PM JST
Astronomical Twilight 4:52 AM JST 7:25 PM JST
Moon 12:22 PM JST (3/10) 1:50 AM JST (3/10)
Length of Visible Light 12h 35m
Length of Day
11h 44m
Waxing Gibbous, 65% of the Moon is Illuminated
Mar 10
Waxing Gibbous
Mar 17
Full
Mar 24
Last Quarter
Mar 31
New
Apr 7
First Quarter

Hourly Weather History & Observations

Time (JST) Temp. Windchill Dew Point Humidity Pressure Visibility Wind Dir Wind Speed Gust Speed Precip Events Conditions
5:00 AM 33.8 °F 27.0 °F 17.6 °F 52% 30.04 in 6.2 mi NW 8.1 mph - N/A   Mostly Cloudy
6:00 AM 33.8 °F 26.4 °F 19.4 °F 56% 30.04 in 6.2 mi WNW 9.2 mph - N/A   Partly Cloudy
7:00 AM 33.8 °F 26.4 °F 21.2 °F 60% 30.06 in 6.2 mi WNW 9.2 mph - N/A   Partly Cloudy
8:00 AM 37.4 °F 34.9 °F 21.2 °F 52% 30.09 in 6.2 mi NW 3.5 mph - N/A   Partly Cloudy
8:25 AM 39.2 °F 30.8 °F 19.4 °F 45% 30.09 in 6.2 mi NW 15.0 mph - N/A   Partly Cloudy
8:48 AM 39.2 °F 30.2 °F 19.4 °F 45% 30.09 in 6.2 mi NW 17.3 mph 28.8 mph N/A   Partly Cloudy
9:00 AM 41.0 °F 33.1 °F 17.6 °F 39% 30.09 in 6.2 mi NW 15.0 mph - N/A   Partly Cloudy
9:43 AM 42.8 °F 34.8 °F 15.8 °F 34% 30.09 in 6.2 mi NW 17.3 mph 32.2 mph N/A   Partly Cloudy
10:00 AM 42.8 °F 35.8 °F 17.6 °F 36% 30.09 in 6.2 mi WNW 13.8 mph - N/A   Partly Cloudy
11:00 AM 42.8 °F 34.3 °F 15.8 °F 34% 30.09 in 6.2 mi WNW 19.6 mph 33.4 mph N/A   Scattered Clouds
12:00 PM 46.4 °F 40.4 °F 14.0 °F 27% 30.09 in 6.2 mi West 13.8 mph - N/A   Mostly Cloudy
12:07 PM 44.6 °F 37.2 °F 14.0 °F 29% 30.06 in 6.2 mi West 17.3 mph 31.1 mph N/A   Mostly Cloudy
12:42 PM 44.6 °F 36.9 °F 19.4 °F 37% 30.09 in 6.2 mi NNW 18.4 mph - N/A   Scattered Clouds
1:00 PM 46.4 °F 39.8 °F 21.2 °F 37% 30.09 in 6.2 mi NNW 16.1 mph - N/A   Scattered Clouds
1:20 PM 44.6 °F 36.6 °F 19.4 °F 37% 30.09 in 6.2 mi NNW 19.6 mph 34.5 mph N/A   Mostly Cloudy
2:00 PM 44.6 °F 37.2 °F 19.4 °F 37% 30.09 in 6.2 mi WNW 17.3 mph - N/A   Mostly Cloudy
3:00 PM 44.6 °F 36.9 °F 23.0 °F 43% 30.09 in 6.2 mi NNW 18.4 mph - N/A   Unknown
3:01 PM 44.6 °F 36.9 °F 23.0 °F 43% 30.09 in 6.2 mi NNW 18.4 mph 36.8 mph N/A   Unknown
4:00 PM 41.0 °F 32.2 °F 24.8 °F 53% 30.12 in 6.2 mi NNW 18.4 mph - N/A   Partly Cloudy
4:10 PM 42.8 °F 34.3 °F 23.0 °F 46% 30.15 in 6.2 mi NNW 19.6 mph 31.1 mph N/A   Unknown
5:00 PM 39.2 °F 31.2 °F 23.0 °F 52% 30.15 in 6.2 mi NW 13.8 mph - N/A   Partly Cloudy
6:00 PM 37.4 °F 28.9 °F 23.0 °F 56% 30.18 in 6.2 mi NW 13.8 mph - N/A   Partly Cloudy
7:00 PM 37.4 °F 29.8 °F 23.0 °F 56% 30.21 in 6.2 mi NW 11.5 mph - N/A   Partly Cloudy
8:00 PM 33.8 °F 30.8 °F 26.6 °F 75% 30.24 in 6.2 mi North 3.5 mph - N/A   Partly Cloudy